Time,TemperatureF,DewpointF,PressureIn,WindDirection,WindDirectionDegrees,WindSpeedMPH,WindSpeedGustMPH,Humidity,HourlyPrecipIn,Conditions,Clouds,dailyrainin,SoftwareType,DateUTC
2013-06-13 00:02:00,76.4,74.2,30.01,SSE,158,0.0,0.0,93,0.00,,,0.00,Wunderground v.1.15,2013-06-13 05:02:00,
2013-06-13 00:07:00,76.2,74.0,30.01,SSE,157,0.0,0.0,93,0.00,,,0.00,Wunderground v.1.15,2013-06-13 05:07:00,
2013-06-13 00:12:00,76.1,74.2,30.01,SSE,157,0.0,0.0,94,0.00,,,0.00,Wunderground v.1.15,2013-06-13 05:12:00,
2013-06-13 00:17:00,76.0,74.1,30.01,SSE,158,0.0,0.0,94,0.00,,,0.00,Wunderground v.1.15,2013-06-13 05:17:00,
2013-06-13 00:22:00,75.9,74.0,30.01,SSE,158,0.0,0.0,94,0.00,,,0.00,Wunderground v.1.15,2013-06-13 05:22:00,
2013-06-13 00:27:00,75.8,73.9,30.01,SSE,158,0.0,0.0,94,0.00,,,0.00,Wunderground v.1.15,2013-06-13 05:27:00,
2013-06-13 00:32:00,75.7,73.8,30.01,SSE,157,0.0,0.0,94,0.00,,,0.00,Wunderground v.1.15,2013-06-13 05:32:00,
2013-06-13 00:37:00,75.6,73.8,30.01,SSE,158,0.0,0.0,94,0.00,,,0.00,Wunderground v.1.15,2013-06-13 05:37:00,
2013-06-13 00:47:00,75.4,73.6,30.01,SSE,158,0.0,0.0,94,0.00,,,0.00,Wunderground v.1.15,2013-06-13 05:47:00,
2013-06-13 00:52:00,75.2,73.7,30.00,SSE,158,0.0,0.0,95,0.00,,,0.00,Wunderground v.1.15,2013-06-13 05:52:00,
2013-06-13 00:57:00,75.2,73.7,30.00,SSE,158,0.0,0.0,95,0.00,,,0.00,Wunderground v.1.15,2013-06-13 05:57:00,
2013-06-13 01:02:00,75.1,73.6,30.00,SSE,157,0.0,0.0,95,0.00,,,0.00,Wunderground v.1.15,2013-06-13 06:02:00,
2013-06-13 01:12:00,74.9,73.4,30.00,SSE,158,0.0,0.0,95,0.00,,,0.00,Wunderground v.1.15,2013-06-13 06:12:00,
2013-06-13 01:17:00,74.8,73.3,30.00,SSE,157,0.0,0.0,95,0.00,,,0.00,Wunderground v.1.15,2013-06-13 06:17:00,
2013-06-13 01:22:00,74.7,73.2,30.00,SSE,158,0.0,0.0,95,0.00,,,0.00,Wunderground v.1.15,2013-06-13 06:22:00,
2013-06-13 01:32:00,74.5,73.3,30.00,SSE,157,0.0,0.0,96,0.00,,,0.00,Wunderground v.1.15,2013-06-13 06:32:00,
2013-06-13 01:37:00,74.5,73.3,30.00,SSE,157,0.0,0.0,96,0.00,,,0.00,Wunderground v.1.15,2013-06-13 06:37:00,
2013-06-13 01:42:00,74.4,73.2,30.00,SSE,158,0.0,0.0,96,0.00,,,0.00,Wunderground v.1.15,2013-06-13 06:42:00,
2013-06-13 01:47:00,74.2,73.0,30.00,SSE,157,0.0,0.0,96,0.00,,,0.00,Wunderground v.1.15,2013-06-13 06:47:00,
2013-06-13 01:52:00,74.2,73.0,30.00,SSE,158,0.0,0.0,96,0.00,,,0.00,Wunderground v.1.15,2013-06-13 06:52:00,
2013-06-13 01:57:00,74.0,72.8,30.00,SSE,158,0.0,0.0,96,0.00,,,0.00,Wunderground v.1.15,2013-06-13 06:57:00,
2013-06-13 02:02:00,74.0,72.8,30.00,SSE,158,0.0,0.0,96,0.00,,,0.00,Wunderground v.1.15,2013-06-13 07:02:00,
2013-06-13 02:12:00,73.8,72.6,29.99,SSE,157,0.0,0.0,96,0.00,,,0.00,Wunderground v.1.15,2013-06-13 07:12:00,
2013-06-13 02:17:00,73.7,72.5,29.99,SSE,158,0.0,0.0,96,0.00,,,0.00,Wunderground v.1.15,2013-06-13 07:17:00,
2013-06-13 02:27:00,73.7,72.8,29.99,SSE,158,0.0,0.0,97,0.00,,,0.00,Wunderground v.1.15,2013-06-13 07:27:00,
2013-06-13 02:32:00,73.7,72.8,29.99,SSE,158,0.0,0.0,97,0.00,,,0.00,Wunderground v.1.15,2013-06-13 07:32:00,
2013-06-13 02:37:00,73.6,72.4,29.99,SSE,158,0.0,0.0,96,0.00,,,0.00,Wunderground v.1.15,2013-06-13 07:37:00,
2013-06-13 02:42:00,73.6,72.7,29.99,SSE,158,0.0,0.0,97,0.00,,,0.00,Wunderground v.1.15,2013-06-13 07:42:00,
2013-06-13 02:52:00,73.4,72.5,29.99,SSE,157,0.0,0.0,97,0.00,,,0.00,Wunderground v.1.15,2013-06-13 07:52:00,
2013-06-13 02:57:00,73.3,72.4,29.99,SSE,157,0.0,0.0,97,0.00,,,0.00,Wunderground v.1.15,2013-06-13 07:57:00,
2013-06-13 03:02:00,73.1,72.2,29.99,SSE,158,0.0,0.0,97,0.00,,,0.00,Wunderground v.1.15,2013-06-13 08:02:00,
2013-06-13 03:07:00,73.0,72.1,29.99,SSE,158,0.0,0.0,97,0.00,,,0.00,Wunderground v.1.15,2013-06-13 08:07:00,
2013-06-13 03:17:00,72.7,71.5,29.99,SSE,158,0.0,0.0,96,0.00,,,0.00,Wunderground v.1.15,2013-06-13 08:17:00,
2013-06-13 03:27:00,72.5,71.6,29.99,SSE,157,0.0,0.0,97,0.00,,,0.00,Wunderground v.1.15,2013-06-13 08:27:00,
2013-06-13 03:32:00,72.4,71.5,29.99,SSE,157,0.0,0.0,97,0.00,,,0.00,Wunderground v.1.15,2013-06-13 08:32:00,
2013-06-13 03:37:00,72.4,71.5,29.99,SSE,157,0.0,0.0,97,0.00,,,0.00,Wunderground v.1.15,2013-06-13 08:37:00,
2013-06-13 03:42:00,72.3,71.4,29.99,SSE,158,0.0,0.0,97,0.00,,,0.00,Wunderground v.1.15,2013-06-13 08:42:00,
2013-06-13 03:47:00,72.3,71.4,29.99,SSE,158,0.0,0.0,97,0.00,,,0.00,Wunderground v.1.15,2013-06-13 08:47:00,
2013-06-13 03:57:00,72.2,71.3,29.99,SSE,158,0.0,0.0,97,0.00,,,0.00,Wunderground v.1.15,2013-06-13 08:57:00,
2013-06-13 04:02:00,72.2,71.3,29.99,SSE,157,0.0,0.0,97,0.00,,,0.00,Wunderground v.1.15,2013-06-13 09:02:00,
2013-06-13 04:12:00,72.3,71.4,29.99,SSE,158,0.0,0.0,97,0.00,,,0.00,Wunderground v.1.15,2013-06-13 09:12:00,
2013-06-13 04:17:00,72.2,71.3,29.98,SSE,158,0.0,0.0,97,0.00,,,0.00,Wunderground v.1.15,2013-06-13 09:17:00,
2013-06-13 04:22:00,72.2,71.3,29.98,SSE,158,0.0,0.0,97,0.00,,,0.00,Wunderground v.1.15,2013-06-13 09:22:00,
2013-06-13 04:32:00,72.2,71.3,29.99,SSE,157,0.0,0.0,97,0.00,,,0.00,Wunderground v.1.15,2013-06-13 09:32:00,
2013-06-13 04:37:00,72.1,71.2,29.99,SSE,157,0.0,0.0,97,0.00,,,0.00,Wunderground v.1.15,2013-06-13 09:37:00,
2013-06-13 04:42:00,72.0,71.1,29.99,SSE,158,0.0,0.0,97,0.00,,,0.00,Wunderground v.1.15,2013-06-13 09:42:00,
2013-06-13 04:47:00,72.0,71.4,29.99,SSE,158,0.0,0.0,98,0.00,,,0.00,Wunderground v.1.15,2013-06-13 09:47:00,
2013-06-13 04:52:00,71.9,71.3,29.99,SSE,158,0.0,0.0,98,0.00,,,0.00,Wunderground v.1.15,2013-06-13 09:52:00,
2013-06-13 05:02:00,71.9,71.3,29.99,SSE,158,0.0,0.0,98,0.00,,,0.00,Wunderground v.1.15,2013-06-13 10:02:00,
2013-06-13 05:07:00,71.8,71.2,29.99,SSE,158,0.0,0.0,98,0.00,,,0.00,Wunderground v.1.15,2013-06-13 10:07:00,
2013-06-13 05:12:00,71.6,70.7,29.99,SSE,157,0.0,0.0,97,0.00,,,0.00,Wunderground v.1.15,2013-06-13 10:12:00,
2013-06-13 05:17:00,71.5,70.6,29.99,SSE,158,0.0,0.0,97,0.00,,,0.00,Wunderground v.1.15,2013-06-13 10:17:00,
2013-06-13 05:22:00,71.6,71.0,29.99,SSE,158,0.0,0.0,98,0.00,,,0.00,Wunderground v.1.15,2013-06-13 10:22:00,
2013-06-13 05:27:00,71.5,70.9,30.00,SSE,158,0.0,0.0,98,0.00,,,0.00,Wunderground v.1.15,2013-06-13 10:27:00,
2013-06-13 05:32:00,71.6,71.0,30.00,SSE,158,0.0,0.0,98,0.00,,,0.00,Wunderground v.1.15,2013-06-13 10:32:00,
2013-06-13 05:37:00,71.5,70.9,30.00,SSE,158,0.0,0.0,98,0.00,,,0.00,Wunderground v.1.15,2013-06-13 10:37:00,
2013-06-13 05:42:00,71.6,71.0,30.00,SSE,157,0.0,0.0,98,0.00,,,0.00,Wunderground v.1.15,2013-06-13 10:42:00,
2013-06-13 05:47:00,71.5,70.9,30.00,SSE,158,0.0,0.0,98,0.00,,,0.00,Wunderground v.1.15,2013-06-13 10:47:00,
2013-06-13 05:52:00,71.5,70.9,30.00,SSE,158,0.0,0.0,98,0.00,,,0.00,Wunderground v.1.15,2013-06-13 10:52:00,
2013-06-13 05:57:00,71.7,71.1,30.00,SSE,157,0.0,0.0,98,0.00,,,0.00,Wunderground v.1.15,2013-06-13 10:57:00,
2013-06-13 06:07:00,71.9,71.3,30.01,SSE,158,0.0,0.0,98,0.00,,,0.00,Wunderground v.1.15,2013-06-13 11:07:00,
2013-06-13 06:12:00,72.1,71.5,30.01,SSE,157,0.0,0.0,98,0.00,,,0.00,Wunderground v.1.15,2013-06-13 11:12:00,
2013-06-13 06:17:00,72.2,71.6,30.01,SSE,158,0.0,0.0,98,0.00,,,0.00,Wunderground v.1.15,2013-06-13 11:17:00,
2013-06-13 06:22:00,72.3,71.7,30.01,SSE,158,0.0,0.0,98,0.00,,,0.00,Wunderground v.1.15,2013-06-13 11:22:00,
2013-06-13 06:27:00,72.4,71.8,30.01,SSE,157,0.0,0.0,98,0.00,,,0.00,Wunderground v.1.15,2013-06-13 11:27:00,
2013-06-13 06:33:00,72.3,71.7,30.01,SSE,158,0.0,0.0,98,0.00,,,0.00,Wunderground v.1.15,2013-06-13 11:33:00,
2013-06-13 06:38:00,72.5,71.9,30.01,SSE,158,0.0,0.0,98,0.00,,,0.00,Wunderground v.1.15,2013-06-13 11:38:00,
2013-06-13 06:43:00,72.6,72.0,30.01,SSE,157,0.0,0.0,98,0.00,,,0.00,Wunderground v.1.15,2013-06-13 11:43:00,
2013-06-13 06:48:00,72.7,72.1,30.02,SSE,157,0.0,0.0,98,0.00,,,0.00,Wunderground v.1.15,2013-06-13 11:48:00,
2013-06-13 06:53:00,72.8,72.2,30.02,SSE,157,0.0,0.0,98,0.00,,,0.00,Wunderground v.1.15,2013-06-13 11:53:00,
2013-06-13 06:58:00,72.9,72.3,30.02,SSE,158,0.0,0.0,98,0.00,,,0.00,Wunderground v.1.15,2013-06-13 11:58:00,
2013-06-13 07:07:00,73.2,72.9,30.02,SSE,158,0.0,0.0,99,0.00,,,0.00,Wunderground v.1.15,2013-06-13 12:07:00,
2013-06-13 07:12:00,73.4,72.8,30.02,SSE,157,0.0,0.0,98,0.00,,,0.00,Wunderground v.1.15,2013-06-13 12:12:00,
2013-06-13 07:17:00,73.5,72.9,30.02,SSE,158,0.0,0.0,98,0.00,,,0.00,Wunderground v.1.15,2013-06-13 12:17:00,
2013-06-13 07:22:00,73.7,73.1,30.02,SSE,157,0.0,0.0,98,0.00,,,0.00,Wunderground v.1.15,2013-06-13 12:22:00,
2013-06-13 07:27:00,73.9,73.6,30.02,SSE,158,0.0,0.0,99,0.00,,,0.00,Wunderground v.1.15,2013-06-13 12:27:00,
2013-06-13 07:33:00,74.1,73.5,30.03,SSE,158,0.0,0.0,98,0.00,,,0.00,Wunderground v.1.15,2013-06-13 12:33:00,
2013-06-13 07:43:00,74.8,74.5,30.03,SSE,158,0.0,0.0,99,0.00,,,0.00,Wunderground v.1.15,2013-06-13 12:43:00,
2013-06-13 07:48:00,75.2,74.9,30.03,SSE,157,0.0,0.0,99,0.00,,,0.00,Wunderground v.1.15,2013-06-13 12:48:00,
2013-06-13 07:53:00,75.5,75.2,30.03,SSE,157,0.0,0.0,99,0.00,,,0.00,Wunderground v.1.15,2013-06-13 12:53:00,
2013-06-13 07:58:00,76.0,75.7,30.03,SSE,157,0.0,0.0,99,0.00,,,0.00,Wunderground v.1.15,2013-06-13 12:58:00,
2013-06-13 08:03:00,76.6,76.0,30.03,SSE,158,0.0,0.0,98,0.00,,,0.00,Wunderground v.1.15,2013-06-13 13:03:00,
2013-06-13 08:08:00,77.3,76.7,30.03,SSE,157,0.0,0.0,98,0.00,,,0.00,Wunderground v.1.15,2013-06-13 13:08:00,
2013-06-13 08:13:00,78.0,77.1,30.04,SSE,158,0.0,0.0,97,0.00,,,0.00,Wunderground v.1.15,2013-06-13 13:13:00,
2013-06-13 08:18:00,78.7,77.1,30.03,SSE,158,0.0,0.0,95,0.00,,,0.00,Wunderground v.1.15,2013-06-13 13:18:00,
2013-06-13 08:23:00,79.5,77.3,30.04,SSE,158,0.0,0.0,93,0.00,,,0.00,Wunderground v.1.15,2013-06-13 13:23:00,
2013-06-13 08:28:00,80.2,77.7,30.04,SSE,157,0.0,0.0,92,0.00,,,0.00,Wunderground v.1.15,2013-06-13 13:28:00,
2013-06-13 08:33:00,80.8,77.6,30.04,SE,137,0.0,0.0,90,0.00,,,0.00,Wunderground v.1.15,2013-06-13 13:33:00,
2013-06-13 08:38:00,81.6,77.7,30.04,SE,132,0.0,0.0,88,0.00,,,0.00,Wunderground v.1.15,2013-06-13 13:38:00,
2013-06-13 08:43:00,82.1,78.2,30.04,SE,134,0.0,0.0,88,0.00,,,0.00,Wunderground v.1.15,2013-06-13 13:43:00,
2013-06-13 08:48:00,82.5,77.9,30.03,SE,137,0.0,0.0,86,0.00,,,0.00,Wunderground v.1.15,2013-06-13 13:48:00,
2013-06-13 08:58:00,83.2,78.2,30.04,East,95,0.0,0.0,85,0.00,,,0.00,Wunderground v.1.15,2013-06-13 13:58:00,
2013-06-13 09:03:00,83.5,78.2,30.04,ENE,63,0.0,0.0,84,0.00,,,0.00,Wunderground v.1.15,2013-06-13 14:03:00,
2013-06-13 09:08:00,84.0,77.9,30.04,ENE,63,0.0,0.0,82,0.00,,,0.00,Wunderground v.1.15,2013-06-13 14:08:00,
2013-06-13 09:18:00,84.6,78.5,30.03,ENE,63,0.0,0.0,82,0.00,,,0.00,Wunderground v.1.15,2013-06-13 14:18:00,
2013-06-13 09:23:00,85.1,79.0,30.03,ENE,63,0.0,0.0,82,0.00,,,0.00,Wunderground v.1.15,2013-06-13 14:23:00,
2013-06-13 09:28:00,85.5,78.6,30.03,ENE,60,0.0,0.0,80,0.00,,,0.00,Wunderground v.1.15,2013-06-13 14:28:00,
2013-06-13 09:33:00,85.8,78.9,30.03,ENE,60,0.0,0.0,80,0.00,,,0.00,Wunderground v.1.15,2013-06-13 14:33:00,
2013-06-13 09:38:00,86.3,79.4,30.03,NE,54,0.0,0.0,80,0.00,,,0.00,Wunderground v.1.15,2013-06-13 14:38:00,
2013-06-13 09:43:00,86.0,77.9,30.03,South,185,0.0,0.0,77,0.00,,,0.00,Wunderground v.1.15,2013-06-13 14:43:00,
2013-06-13 09:52:00,86.2,78.9,30.03,NW,317,0.0,0.0,79,0.00,,,0.00,Wunderground v.1.15,2013-06-13 14:52:00,
2013-06-13 09:57:00,86.6,78.5,30.03,NW,306,0.0,0.0,77,0.00,,,0.00,Wunderground v.1.15,2013-06-13 14:57:00,
2013-06-13 10:02:00,85.9,78.2,30.03,WSW,253,0.0,0.0,78,0.00,,,0.00,Wunderground v.1.15,2013-06-13 15:02:00,
2013-06-13 10:08:00,85.9,77.8,30.03,WSW,242,0.0,0.0,77,0.00,,,0.00,Wunderground v.1.15,2013-06-13 15:08:00,
2013-06-13 10:17:00,86.8,78.7,30.02,NNE,33,0.0,0.0,77,0.00,,,0.00,Wunderground v.1.15,2013-06-13 15:17:00,
2013-06-13 10:23:00,87.0,78.9,30.02,SW,234,0.0,0.0,77,0.00,,,0.00,Wunderground v.1.15,2013-06-13 15:23:00,
2013-06-13 10:33:00,87.2,79.1,30.03,SW,225,0.0,0.0,77,0.00,,,0.00,Wunderground v.1.15,2013-06-13 15:33:00,
2013-06-13 10:38:00,87.9,79.0,30.02,North,11,0.0,0.0,75,0.00,,,0.00,Wunderground v.1.15,2013-06-13 15:38:00,
2013-06-13 10:43:00,88.4,79.1,30.02,NW,312,0.0,0.0,74,0.00,,,0.00,Wunderground v.1.15,2013-06-13 15:43:00,
2013-06-13 10:48:00,88.0,79.1,30.02,NW,305,0.0,0.0,75,0.00,,,0.00,Wunderground v.1.15,2013-06-13 15:48:00,
2013-06-13 10:57:00,87.3,79.2,30.02,West,265,0.0,0.0,77,0.00,,,0.00,Wunderground v.1.15,2013-06-13 15:57:00,
2013-06-13 11:02:00,88.6,78.4,30.02,WNW,300,0.0,0.0,72,0.00,,,0.00,Wunderground v.1.15,2013-06-13 16:02:00,
2013-06-13 11:12:00,88.0,78.7,30.02,SW,217,0.0,0.0,74,0.00,,,0.00,Wunderground v.1.15,2013-06-13 16:12:00,
2013-06-13 11:17:00,88.8,79.4,30.02,NE,36,0.0,0.0,74,0.00,,,0.00,Wunderground v.1.15,2013-06-13 16:17:00,
2013-06-13 11:22:00,89.2,78.6,30.02,NNE,30,0.0,0.0,71,0.00,,,0.00,Wunderground v.1.15,2013-06-13 16:22:00,
2013-06-13 11:32:00,90.1,78.6,30.01,SSE,153,0.0,0.0,69,0.00,,,0.00,Wunderground v.1.15,2013-06-13 16:32:00,
2013-06-13 11:37:00,90.8,77.4,30.01,ESE,113,0.0,0.0,65,0.00,,,0.00,Wunderground v.1.15,2013-06-13 16:37:00,
2013-06-13 11:42:00,91.0,77.1,30.01,ESE,115,0.0,0.0,64,0.00,,,0.00,Wunderground v.1.15,2013-06-13 16:42:00,
2013-06-13 11:47:00,90.1,77.7,30.01,West,264,0.0,0.0,67,0.00,,,0.00,Wunderground v.1.15,2013-06-13 16:47:00,
2013-06-13 11:57:00,90.2,76.4,30.01,NNE,16,0.0,0.0,64,0.00,,,0.00,Wunderground v.1.15,2013-06-13 16:57:00,
2013-06-13 12:02:00,90.5,76.7,30.01,WNW,300,0.0,0.0,64,0.00,,,0.00,Wunderground v.1.15,2013-06-13 17:02:00,
2013-06-13 12:07:00,91.0,78.1,30.01,South,171,0.0,0.0,66,0.00,,,0.00,Wunderground v.1.15,2013-06-13 17:07:00,
2013-06-13 12:17:00,90.2,77.3,30.00,South,171,0.0,0.0,66,0.00,,,0.00,Wunderground v.1.15,2013-06-13 17:17:00,
2013-06-13 12:22:00,91.3,76.9,30.00,South,175,0.0,0.0,63,0.00,,,0.00,Wunderground v.1.15,2013-06-13 17:22:00,
2013-06-13 12:32:00,90.8,77.4,30.00,South,175,0.0,0.0,65,0.00,,,0.00,Wunderground v.1.15,2013-06-13 17:32:00,
2013-06-13 12:37:00,90.3,77.4,30.00,South,175,0.0,0.0,66,0.00,,,0.00,Wunderground v.1.15,2013-06-13 17:37:00,
2013-06-13 12:42:00,90.4,78.8,29.99,SE,136,0.0,0.0,69,0.00,,,0.00,Wunderground v.1.15,2013-06-13 17:42:00,
2013-06-13 12:47:00,90.1,77.7,29.99,South,172,0.0,0.0,67,0.00,,,0.00,Wunderground v.1.15,2013-06-13 17:47:00,
2013-06-13 12:52:00,89.9,75.1,29.99,South,172,0.0,0.0,62,0.00,,,0.00,Wunderground v.1.15,2013-06-13 17:52:00,
2013-06-13 12:57:00,90.4,75.1,29.99,South,172,0.0,0.0,61,0.00,,,0.00,Wunderground v.1.15,2013-06-13 17:57:00,
2013-06-13 13:07:00,91.4,77.0,29.99,SE,146,0.0,0.0,63,0.00,,,0.00,Wunderground v.1.15,2013-06-13 18:07:00,
2013-06-13 13:12:00,91.7,75.3,29.98,SE,145,0.0,0.0,59,0.00,,,0.00,Wunderground v.1.15,2013-06-13 18:12:00,
2013-06-13 13:17:00,91.8,76.4,29.98,SE,146,0.0,0.0,61,0.00,,,0.00,Wunderground v.1.15,2013-06-13 18:17:00,
2013-06-13 13:22:00,92.2,76.8,29.98,SE,146,0.0,0.0,61,0.00,,,0.00,Wunderground v.1.15,2013-06-13 18:22:00,
2013-06-13 13:27:00,92.7,78.3,29.98,SE,146,0.0,0.0,63,0.00,,,0.00,Wunderground v.1.15,2013-06-13 18:27:00,
2013-06-13 13:33:00,92.8,76.9,29.97,SSE,148,0.0,0.0,60,0.00,,,0.00,Wunderground v.1.15,2013-06-13 18:33:00,
2013-06-13 13:38:00,91.7,76.3,29.97,SSE,150,0.0,0.0,61,0.00,,,0.00,Wunderground v.1.15,2013-06-13 18:38:00,
2013-06-13 13:43:00,92.1,76.2,29.97,SSE,149,0.0,0.0,60,0.00,,,0.00,Wunderground v.1.15,2013-06-13 18:43:00,
2013-06-13 13:48:00,92.0,75.1,29.97,SSE,150,0.0,0.0,58,0.00,,,0.00,Wunderground v.1.15,2013-06-13 18:48:00,
2013-06-13 13:53:00,92.5,77.1,29.97,ESE,107,0.0,0.0,61,0.00,,,0.00,Wunderground v.1.15,2013-06-13 18:53:00,
2013-06-13 13:58:00,92.8,75.3,29.96,SW,228,0.0,0.0,57,0.00,,,0.00,Wunderground v.1.15,2013-06-13 18:58:00,
2013-06-13 14:08:00,93.0,75.5,29.96,SE,141,0.0,0.0,57,0.00,,,0.00,Wunderground v.1.15,2013-06-13 19:08:00,
2013-06-13 14:13:00,93.1,75.6,29.96,SE,142,0.0,0.0,57,0.00,,,0.00,Wunderground v.1.15,2013-06-13 19:13:00,
2013-06-13 14:18:00,92.1,75.7,29.95,SE,142,0.0,0.0,59,0.00,,,0.00,Wunderground v.1.15,2013-06-13 19:18:00,
2013-06-13 14:23:00,92.5,76.6,29.95,SSE,166,0.0,0.0,60,0.00,,,0.00,Wunderground v.1.15,2013-06-13 19:23:00,
2013-06-13 14:28:00,93.7,77.2,29.95,SSE,165,0.0,0.0,59,0.00,,,0.00,Wunderground v.1.15,2013-06-13 19:28:00,
2013-06-13 14:33:00,94.6,76.5,29.95,SSE,168,0.0,0.0,56,0.00,,,0.00,Wunderground v.1.15,2013-06-13 19:33:00,
2013-06-13 14:38:00,94.6,75.4,29.94,South,190,0.0,0.0,54,0.00,,,0.00,Wunderground v.1.15,2013-06-13 19:38:00,
2013-06-13 14:43:00,94.7,76.0,29.94,South,190,0.0,0.0,55,0.00,,,0.00,Wunderground v.1.15,2013-06-13 19:43:00,
2013-06-13 14:48:00,94.6,74.8,29.94,South,190,0.0,0.0,53,0.00,,,0.00,Wunderground v.1.15,2013-06-13 19:48:00,
2013-06-13 14:53:00,94.4,76.3,29.94,South,190,0.0,0.0,56,0.00,,,0.00,Wunderground v.1.15,2013-06-13 19:53:00,
2013-06-13 14:58:00,94.6,76.5,29.94,South,190,0.0,0.0,56,0.00,,,0.00,Wunderground v.1.15,2013-06-13 19:58:00,
2013-06-13 15:03:00,93.8,74.1,29.94,North,11,0.0,0.0,53,0.00,,,0.00,Wunderground v.1.15,2013-06-13 20:03:00,
2013-06-13 15:13:00,93.5,76.0,29.94,NW,315,0.0,0.0,57,0.00,,,0.00,Wunderground v.1.15,2013-06-13 20:13:00,
2013-06-13 15:18:00,92.8,74.8,29.94,WNW,294,0.0,0.0,56,0.00,,,0.00,Wunderground v.1.15,2013-06-13 20:18:00,
2013-06-13 15:23:00,91.3,75.0,29.93,West,270,0.0,0.0,59,0.00,,,0.00,Wunderground v.1.15,2013-06-13 20:23:00,
2013-06-13 15:28:00,91.0,75.2,29.93,SW,223,0.0,0.0,60,0.00,,,0.00,Wunderground v.1.15,2013-06-13 20:28:00,
2013-06-13 15:33:00,91.8,74.4,29.93,NW,319,0.0,0.0,57,0.00,,,0.00,Wunderground v.1.15,2013-06-13 20:33:00,
2013-06-13 15:38:00,92.5,76.6,29.93,NNE,21,0.0,0.0,60,0.00,,,0.00,Wunderground v.1.15,2013-06-13 20:38:00,
2013-06-13 15:47:00,92.9,75.9,29.92,North,355,0.0,0.0,58,0.00,,,0.00,Wunderground v.1.15,2013-06-13 20:47:00,
2013-06-13 15:57:00,92.9,75.9,29.92,SSW,198,0.0,0.0,58,0.00,,,0.00,Wunderground v.1.15,2013-06-13 20:57:00,
2013-06-13 16:02:00,92.5,74.0,29.92,SSW,198,0.0,0.0,55,0.00,,,0.00,Wunderground v.1.15,2013-06-13 21:02:00,
2013-06-13 16:08:00,91.5,73.6,29.92,SSE,156,0.0,0.0,56,0.00,,,0.00,Wunderground v.1.15,2013-06-13 21:08:00,
2013-06-13 16:17:00,90.6,75.3,29.91,SSE,157,0.0,0.0,61,0.00,,,0.00,Wunderground v.1.15,2013-06-13 21:17:00,
2013-06-13 16:22:00,90.3,74.0,29.91,SSE,157,0.0,0.0,59,0.00,,,0.00,Wunderground v.1.15,2013-06-13 21:22:00,
2013-06-13 16:27:00,90.3,74.5,29.91,SSE,167,0.0,0.0,60,0.00,,,0.00,Wunderground v.1.15,2013-06-13 21:27:00,
2013-06-13 16:32:00,90.6,74.8,29.91,SSE,167,0.0,0.0,60,0.00,,,0.00,Wunderground v.1.15,2013-06-13 21:32:00,
2013-06-13 16:37:00,90.7,74.9,29.91,South,175,0.0,0.0,60,0.00,,,0.00,Wunderground v.1.15,2013-06-13 21:37:00,
2013-06-13 16:42:00,90.9,76.6,29.91,South,175,0.0,0.0,63,0.00,,,0.00,Wunderground v.1.15,2013-06-13 21:42:00,
2013-06-13 16:52:00,90.8,75.0,29.90,South,176,0.0,0.0,60,0.00,,,0.00,Wunderground v.1.15,2013-06-13 21:52:00,
2013-06-13 16:57:00,91.1,75.3,29.91,South,176,0.0,0.0,60,0.00,,,0.00,Wunderground v.1.15,2013-06-13 21:57:00,
2013-06-13 17:02:00,90.8,75.0,29.90,South,176,0.0,0.0,60,0.00,,,0.00,Wunderground v.1.15,2013-06-13 22:02:00,
2013-06-13 17:07:00,91.0,75.7,29.90,South,173,0.0,0.0,61,0.00,,,0.00,Wunderground v.1.15,2013-06-13 22:07:00,
2013-06-13 17:12:00,90.8,75.5,29.90,South,173,0.0,0.0,61,0.00,,,0.00,Wunderground v.1.15,2013-06-13 22:12:00,
2013-06-13 17:22:00,90.3,75.5,29.90,SSE,168,0.0,0.0,62,0.00,,,0.00,Wunderground v.1.15,2013-06-13 22:22:00,
2013-06-13 17:27:00,90.0,76.2,29.89,South,169,0.0,0.0,64,0.00,,,0.00,Wunderground v.1.15,2013-06-13 22:27:00,
2013-06-13 17:32:00,89.8,74.1,29.89,South,169,0.0,0.0,60,0.00,,,0.00,Wunderground v.1.15,2013-06-13 22:32:00,
2013-06-13 17:37:00,89.7,75.9,29.89,South,169,0.0,0.0,64,0.00,,,0.00,Wunderground v.1.15,2013-06-13 22:37:00,
2013-06-13 17:42:00,89.3,75.5,29.89,SSE,168,0.0,0.0,64,0.00,,,0.00,Wunderground v.1.15,2013-06-13 22:42:00,
2013-06-13 17:47:00,88.9,74.7,29.89,SSE,168,0.0,0.0,63,0.00,,,0.00,Wunderground v.1.15,2013-06-13 22:47:00,
2013-06-13 17:57:00,88.4,74.7,29.89,South,169,0.0,0.0,64,0.00,,,0.00,Wunderground v.1.15,2013-06-13 22:57:00,
2013-06-13 18:02:00,88.3,75.0,29.89,South,169,0.0,0.0,65,0.00,,,0.00,Wunderground v.1.15,2013-06-13 23:02:00,
2013-06-13 18:07:00,88.1,75.3,29.88,South,169,0.0,0.0,66,0.00,,,0.00,Wunderground v.1.15,2013-06-13 23:07:00,
2013-06-13 18:12:00,88.1,74.8,29.88,South,169,0.0,0.0,65,0.00,,,0.00,Wunderground v.1.15,2013-06-13 23:12:00,
2013-06-13 18:17:00,88.1,75.3,29.88,SSE,168,0.0,0.0,66,0.00,,,0.00,Wunderground v.1.15,2013-06-13 23:17:00,
2013-06-13 18:27:00,87.9,76.0,29.88,South,169,0.0,0.0,68,0.00,,,0.00,Wunderground v.1.15,2013-06-13 23:27:00,
2013-06-13 18:33:00,87.5,75.2,29.88,South,169,0.0,0.0,67,0.00,,,0.00,Wunderground v.1.15,2013-06-13 23:33:00,
2013-06-13 18:38:00,87.3,75.0,29.87,South,169,0.0,0.0,67,0.00,,,0.00,Wunderground v.1.15,2013-06-13 23:38:00,
2013-06-13 18:43:00,87.1,75.3,29.87,South,169,0.0,0.0,68,0.00,,,0.00,Wunderground v.1.15,2013-06-13 23:43:00,
2013-06-13 18:48:00,86.9,75.5,29.87,South,169,0.0,0.0,69,0.00,,,0.00,Wunderground v.1.15,2013-06-13 23:48:00,
2013-06-13 18:57:00,86.5,75.1,29.87,South,169,0.0,0.0,69,0.00,,,0.00,Wunderground v.1.15,2013-06-13 23:57:00,
2013-06-13 19:02:00,86.2,74.8,29.88,South,169,0.0,0.0,69,0.00,,,0.00,Wunderground v.1.15,2013-06-14 00:02:00,
2013-06-13 19:12:00,85.7,75.2,29.88,South,169,0.0,0.0,71,0.00,,,0.00,Wunderground v.1.15,2013-06-14 00:12:00,
2013-06-13 19:17:00,85.6,75.1,29.88,South,169,0.0,0.0,71,0.00,,,0.00,Wunderground v.1.15,2013-06-14 00:17:00,
2013-06-13 19:22:00,85.4,75.3,29.88,South,169,0.0,0.0,72,0.00,,,0.00,Wunderground v.1.15,2013-06-14 00:22:00,
2013-06-13 19:33:00,85.0,75.4,29.88,South,169,0.0,0.0,73,0.00,,,0.00,Wunderground v.1.15,2013-06-14 00:33:00,
2013-06-13 19:38:00,84.8,75.2,29.88,South,169,0.0,0.0,73,0.00,,,0.00,Wunderground v.1.15,2013-06-14 00:38:00,
2013-06-13 19:43:00,84.6,75.4,29.88,South,169,0.0,0.0,74,0.00,,,0.00,Wunderground v.1.15,2013-06-14 00:43:00,
2013-06-13 19:48:00,84.3,75.1,29.88,South,169,0.0,0.0,74,0.00,,,0.00,Wunderground v.1.15,2013-06-14 00:48:00,
2013-06-13 19:53:00,84.0,75.2,29.88,South,169,0.0,0.0,75,0.00,,,0.00,Wunderground v.1.15,2013-06-14 00:53:00,
2013-06-13 20:02:00,83.2,75.6,29.87,South,169,0.0,0.0,78,0.00,,,0.00,Wunderground v.1.15,2013-06-14 01:02:00,
2013-06-13 20:08:00,82.7,75.5,29.87,South,169,0.0,0.0,79,0.00,,,0.00,Wunderground v.1.15,2013-06-14 01:08:00,
2013-06-13 20:13:00,82.4,75.6,29.87,South,169,0.0,0.0,80,0.00,,,0.00,Wunderground v.1.15,2013-06-14 01:13:00,
2013-06-13 20:18:00,82.1,75.3,29.87,South,169,0.0,0.0,80,0.00,,,0.00,Wunderground v.1.15,2013-06-14 01:18:00,
2013-06-13 20:23:00,81.7,75.3,29.88,South,169,0.0,0.0,81,0.00,,,0.00,Wunderground v.1.15,2013-06-14 01:23:00,
2013-06-13 20:28:00,81.3,75.3,29.87,South,169,0.0,0.0,82,0.00,,,0.00,Wunderground v.1.15,2013-06-14 01:28:00,
2013-06-13 20:33:00,80.9,74.9,29.87,South,169,0.0,0.0,82,0.00,,,0.00,Wunderground v.1.15,2013-06-14 01:33:00,
2013-06-13 20:38:00,80.7,74.7,29.87,South,169,0.0,0.0,82,0.00,,,0.00,Wunderground v.1.15,2013-06-14 01:38:00,
2013-06-13 20:43:00,80.5,74.5,29.88,South,169,0.0,0.0,82,0.00,,,0.00,Wunderground v.1.15,2013-06-14 01:43:00,
2013-06-13 20:48:00,80.3,74.3,29.87,South,169,0.0,0.0,82,0.00,,,0.00,Wunderground v.1.15,2013-06-14 01:48:00,
2013-06-13 20:53:00,80.2,74.6,29.87,South,169,0.0,0.0,83,0.00,,,0.00,Wunderground v.1.15,2013-06-14 01:53:00,
2013-06-13 20:58:00,80.0,74.7,29.87,South,169,0.0,0.0,84,0.00,,,0.00,Wunderground v.1.15,2013-06-14 01:58:00,
2013-06-13 21:07:00,79.4,74.5,29.87,South,169,0.0,0.0,85,0.00,,,0.00,Wunderground v.1.15,2013-06-14 02:07:00,
2013-06-13 21:12:00,79.3,74.4,29.88,South,169,0.0,0.0,85,0.00,,,0.00,Wunderground v.1.15,2013-06-14 02:12:00,
2013-06-13 21:17:00,79.2,74.3,29.88,South,169,0.0,0.0,85,0.00,,,0.00,Wunderground v.1.15,2013-06-14 02:17:00,
2013-06-13 21:22:00,79.1,74.5,29.87,South,169,0.0,0.0,86,0.00,,,0.00,Wunderground v.1.15,2013-06-14 02:22:00,
2013-06-13 21:27:00,79.0,74.5,29.87,South,169,0.0,0.0,86,0.00,,,0.00,Wunderground v.1.15,2013-06-14 02:27:00,
2013-06-13 21:32:00,78.9,74.7,29.87,South,169,0.0,0.0,87,0.00,,,0.00,Wunderground v.1.15,2013-06-14 02:32:00,
2013-06-13 21:38:00,78.6,74.4,29.88,South,169,0.0,0.0,87,0.00,,,0.00,Wunderground v.1.15,2013-06-14 02:38:00,
2013-06-13 21:43:00,78.4,74.2,29.88,South,169,0.0,0.0,87,0.00,,,0.00,Wunderground v.1.15,2013-06-14 02:43:00,
2013-06-13 21:52:00,78.1,73.9,29.88,South,169,0.0,0.0,87,0.00,,,0.00,Wunderground v.1.15,2013-06-14 02:52:00,
2013-06-13 21:57:00,78.1,73.9,29.88,South,169,0.0,0.0,87,0.00,,,0.00,Wunderground v.1.15,2013-06-14 02:57:00,
2013-06-13 22:02:00,78.3,74.1,29.88,South,169,0.0,0.0,87,0.00,,,0.00,Wunderground v.1.15,2013-06-14 03:02:00,
2013-06-13 22:07:00,78.3,74.1,29.88,South,169,0.0,0.0,87,0.00,,,0.00,Wunderground v.1.15,2013-06-14 03:07:00,
2013-06-13 22:12:00,78.1,73.6,29.88,South,169,0.0,0.0,86,0.00,,,0.00,Wunderground v.1.15,2013-06-14 03:12:00,
2013-06-13 22:17:00,78.0,73.5,29.88,South,169,0.0,0.0,86,0.00,,,0.00,Wunderground v.1.15,2013-06-14 03:17:00,
2013-06-13 22:22:00,77.9,73.4,29.89,South,169,0.0,0.0,86,0.00,,,0.00,Wunderground v.1.15,2013-06-14 03:22:00,
2013-06-13 22:27:00,77.8,73.6,29.89,South,169,0.0,0.0,87,0.00,,,0.00,Wunderground v.1.15,2013-06-14 03:27:00,
2013-06-13 22:32:00,77.7,73.5,29.89,South,169,0.0,0.0,87,0.00,,,0.00,Wunderground v.1.15,2013-06-14 03:32:00,
2013-06-13 22:37:00,77.6,73.4,29.89,South,169,0.0,0.0,87,0.00,,,0.00,Wunderground v.1.15,2013-06-14 03:37:00,
2013-06-13 22:47:00,77.2,73.0,29.89,South,169,0.0,0.0,87,0.00,,,0.00,Wunderground v.1.15,2013-06-14 03:47:00,
2013-06-13 22:52:00,77.0,73.2,29.89,South,169,0.0,0.0,88,0.00,,,0.00,Wunderground v.1.15,2013-06-14 03:52:00,
2013-06-13 22:57:00,76.8,73.0,29.89,South,169,0.0,0.0,88,0.00,,,0.00,Wunderground v.1.15,2013-06-14 03:57:00,
2013-06-13 23:02:00,76.8,73.0,29.89,South,169,0.0,0.0,88,0.00,,,0.00,Wunderground v.1.15,2013-06-14 04:02:00,
2013-06-13 23:07:00,76.8,73.0,29.89,South,169,0.0,0.0,88,0.00,,,0.00,Wunderground v.1.15,2013-06-14 04:07:00,
2013-06-13 23:12:00,76.8,73.0,29.89,South,169,0.0,0.0,88,0.00,,,0.00,Wunderground v.1.15,2013-06-14 04:12:00,
2013-06-13 23:17:00,76.9,73.1,29.89,South,169,0.0,0.0,88,0.00,,,0.00,Wunderground v.1.15,2013-06-14 04:17:00,
2013-06-13 23:22:00,76.9,72.7,29.89,South,169,0.0,0.0,87,0.00,,,0.00,Wunderground v.1.15,2013-06-14 04:22:00,
2013-06-13 23:27:00,77.0,72.8,29.88,South,169,0.0,0.0,87,0.00,,,0.00,Wunderground v.1.15,2013-06-14 04:27:00,
2013-06-13 23:33:00,77.0,72.8,29.88,South,169,0.0,0.0,87,0.00,,,0.00,Wunderground v.1.15,2013-06-14 04:33:00,
2013-06-13 23:42:00,76.8,72.6,29.89,South,169,0.0,0.0,87,0.00,,,0.00,Wunderground v.1.15,2013-06-14 04:42:00,
2013-06-13 23:48:00,76.8,72.6,29.89,South,169,0.0,0.0,87,0.00,,,0.00,Wunderground v.1.15,2013-06-14 04:48:00,
2013-06-13 23:53:00,76.6,72.8,29.89,South,169,0.0,0.0,88,0.00,,,0.00,Wunderground v.1.15,2013-06-14 04:53:00,
2013-06-13 23:58:00,76.5,73.0,29.89,South,169,0.0,0.0,89,0.00,,,0.00,Wunderground v.1.15,2013-06-14 04:58:00,